COSMOS 2251 DEB

Satellite information

Favourite Embed

Satellite Type and Status

DEBRISIN ORBIT

Key statistics

Satellite COSMOS 2251 DEB at a glance.

Uptime

11649

Days in orbit

Revolutions

≈ 14.4

Per day

Orbit

LEO

Low Earth Orbit

Inclination

74.1

Latest

Satellite identification and parameters

Extended collection of information and parameters for COSMOS 2251 DEB.

Object identification

Identified? True

Debris? True

Object name: COSMOS 2251 DEB

International designator: 1993-036RX

Object number (NORAD): 34430

Object ID (CCSDS): 34430

Country: COMMONWEALTH OF INDEPENDENT STATES (CIS)

Current information (Y/N): Y

RCS size: SMALL

Orbital parameters

Period: 100.07 minutes

Inclination: 74.0522 deg

SMA: 7139.963 km

Apoapsis: 805.876 km

Periapsis: 717.779 km

RAAN: 346.9261 deg

Eccentricy: 0.0061693

Argument of periapsis: 113.4395 deg

Mean anomaly: 247.3262 deg

Mean motion: 14.3899361 rev/day

Mean motion (dot): 0.00001444 rev/day2

B* drag term: 0.00046588 1/REarth

Two-line elements (TLE)

Creation date: May 8, 2025, 3:01 a.m.

Reference frame: TEME

Reference center: EARTH

Epoch: May 7, 2025, 9:03 p.m. UTC

TLE line 0: 0 COSMOS 2251 DEB

TLE line 1: 1 34430U 93036RX 25127.87712331 .00001444 00000-0 46588-3 0 9991

TLE line 2: 2 34430 74.0522 346.9261 0061693 113.4395 247.3262 14.38993610848064

Live tracking on map

Real-time ground track for satellite COSMOS 2251 DEB.

In-orbit conjunctions

A list of the most updated potential collisions computed for object COSMOS 2251 DEB.

Target Orbit TCA Probability of collision Miss distance Type
CZ-6A DEB LEO 2025-02-04 21:58:19 0.000229717 260.0 (m) DEBRIS
NOAA 16 DEB SSO 2024-11-12 10:18:39 0.0002807707 411.0 (m) DEBRIS

Associated space launch

Military communications satellite. Destroyed in a collision with Iridium 33.

COSMOS 2251 DEB was lifted into orbit during the mission ‘Kosmos-3M | Strela-2M 51’, on board a Kosmos-3M space rocket.

The launch took place on June 16, 1993, 4:17 a.m. from 132/1 (132L).

For more information about the launch, click the button.

Launch to space Kosmos-3M | Strela-2M 51
Kosmos-3M | Strela-2M 51

Agency: N/A

Status: Launch Successful

Launch date: June 16, 1993, 4:17 a.m. UTC

Rocket: Kosmos-3M

Launch pad: 132/1 (132L)

Location: Plesetsk Cosmodrome, Russian Federation

...

Latest news about this satellite

There are no fresh news available about this satellite. Check back as we update our databases every day.


Newsletter sign-up

Weekly statistics, charts and insights to help you stay on top of the space industry.